• In Belarus
  • List of Countries
  • For 7 days
  • Water Temperature
  • Weather Map
  • Weather Widgets
  • user-avatar
    Login

    Hourly Weather Tibissa

    Today, 21 November, Thursday

    Time Temperature Precipitation Wind Pressure Humidity
    00:00 +5°C° 0 mm 3 mps 683 mmHg 67%
    01:00 +4°C° 0 mm 3 mps 682 mmHg 71%
    02:00 +5°C° 0 mm 4 mps 682 mmHg 70%
    03:00 +5°C° 0 mm 4 mps 682 mmHg 70%
    04:00 +5°C° 0 mm 4 mps 682 mmHg 69%
    05:00 +5°C° 0 mm 4 mps 682 mmHg 68%
    06:00 +5°C° 0 mm 4 mps 682 mmHg 67%
    07:00 +5°C° 0 mm 4 mps 682 mmHg 68%
    08:00 +6°C° 0 mm 5 mps 683 mmHg 60%
    09:00 +8°C° 0 mm 6 mps 683 mmHg 53%
    10:00 +9°C° 0 mm 7 mps 683 mmHg 45%
    11:00 +10°C° 0 mm 8 mps 683 mmHg 45%
    12:00 +11°C° 0 mm 8 mps 683 mmHg 45%
    13:00 +12°C° 0 mm 9 mps 683 mmHg 45%
    14:00 +12°C° 0 mm 9 mps 683 mmHg 44%
    15:00 +12°C° 0 mm 8 mps 683 mmHg 43%
    16:00 +12°C° 0 mm 8 mps 683 mmHg 42%
    17:00 +10°C° 0 mm 6 mps 682 mmHg 46%
    18:00 +9°C° 0 mm 5 mps 682 mmHg 49%
    19:00 +8°C° 0 mm 4 mps 682 mmHg 53%
    20:00 +7°C° 0 mm 4 mps 683 mmHg 53%
    21:00 +7°C° 0 mm 4 mps 683 mmHg 53%
    22:00 +8°C° 0 mm 3 mps 683 mmHg 53%
    23:00 +7°C° 0 mm 4 mps 683 mmHg 53%

    Tomorrow, 22 November, Friday

    Time Temperature Precipitation Wind Pressure Humidity
    00:00 +7°C° 0 mm 4 mps 683 mmHg 52%
    01:00 +7°C° 0 mm 4 mps 683 mmHg 51%
    02:00 +7°C° 0 mm 4 mps 683 mmHg 50%
    03:00 +7°C° 0 mm 4 mps 682 mmHg 49%
    04:00 +7°C° 0 mm 4 mps 682 mmHg 49%
    05:00 +7°C° 0 mm 4 mps 682 mmHg 48%
    06:00 +7°C° 0 mm 4 mps 682 mmHg 48%
    07:00 +7°C° 0 mm 4 mps 682 mmHg 48%
    08:00 +8°C° 0 mm 5 mps 683 mmHg 44%
    09:00 +10°C° 0 mm 5 mps 683 mmHg 40%
    10:00 +11°C° 0 mm 6 mps 684 mmHg 36%
    11:00 +12°C° 0 mm 7 mps 683 mmHg 34%
    12:00 +13°C° 0 mm 8 mps 683 mmHg 32%
    13:00 +15°C° 0 mm 9 mps 683 mmHg 30%
    14:00 +13°C° 0 mm 8 mps 682 mmHg 30%
    15:00 +13°C° 0 mm 8 mps 682 mmHg 30%
    16:00 +13°C° 0 mm 8 mps 681 mmHg 31%
    17:00 +11°C° 0 mm 7 mps 681 mmHg 35%
    18:00 +10°C° 0 mm 6 mps 681 mmHg 40%
    19:00 +8°C° 0 mm 4 mps 681 mmHg 44%
    20:00 +8°C° 0 mm 5 mps 681 mmHg 44%
    21:00 +8°C° 0 mm 5 mps 681 mmHg 44%
    22:00 +8°C° 0 mm 5 mps 681 mmHg 44%
    23:00 +8°C° 0 mm 5 mps 681 mmHg 44%

    Day after tomorrow, 23 November, Saturday

    Time Temperature Precipitation Wind Pressure Humidity
    00:00 +7°C° 0 mm 5 mps 681 mmHg 43%
    01:00 +7°C° 0 mm 5 mps 680 mmHg 42%
    02:00 +7°C° 0 mm 5 mps 680 mmHg 42%
    03:00 +7°C° 0 mm 5 mps 680 mmHg 41%
    04:00 +7°C° 0 mm 6 mps 679 mmHg 41%
    05:00 +7°C° 0 mm 6 mps 679 mmHg 40%
    06:00 +8°C° 0 mm 6 mps 679 mmHg 40%
    07:00 +8°C° 0 mm 7 mps 679 mmHg 39%
    08:00 +9°C° 0 mm 8 mps 679 mmHg 40%
    09:00 +10°C° 0 mm 9 mps 679 mmHg 41%
    10:00 +11°C° 0 mm 10 mps 680 mmHg 42%
    11:00 +12°C° 0 mm 10 mps 679 mmHg 38%
    12:00 +12°C° 0 mm 11 mps 679 mmHg 34%
    13:00 +13°C° 0 mm 12 mps 679 mmHg 29%
    14:00 +11°C° 0 mm 11 mps 678 mmHg 40%
    15:00 +10°C° 0 mm 9 mps 677 mmHg 51%
    16:00 +7°C° 0 mm 8 mps 676 mmHg 62%
    17:00 +9°C° 0.1 mm 8 mps 677 mmHg 68%
    18:00 +9°C° 0.1 mm 7 mps 677 mmHg 73%
    19:00 +9°C° 0.1 mm 7 mps 677 mmHg 79%
    20:00 +8°C° 0 mm 6 mps 677 mmHg 80%
    21:00 +8°C° 0 mm 6 mps 677 mmHg 82%
    22:00 +7°C° 0 mm 6 mps 677 mmHg 83%
    23:00 +7°C° 0.2 mm 5 mps 677 mmHg 82%

    24 November, Sunday

    Time Temperature Precipitation Wind Pressure Humidity
    00:00 +7°C° 0.2 mm 5 mps 677 mmHg 80%
    01:00 +6°C° 0.2 mm 5 mps 677 mmHg 79%
    02:00 +6°C° 0.1 mm 5 mps 677 mmHg 79%
    03:00 +5°C° 0.1 mm 6 mps 677 mmHg 79%
    04:00 +5°C° 0.1 mm 6 mps 677 mmHg 78%
    05:00 +4°C° 0 mm 6 mps 677 mmHg 79%
    06:00 +4°C° 0 mm 7 mps 677 mmHg 79%
    07:00 +4°C° 0 mm 7 mps 676 mmHg 79%
    08:00 +5°C° 0 mm 9 mps 677 mmHg 75%
    09:00 +6°C° 0 mm 10 mps 678 mmHg 72%
    10:00 +7°C° 0 mm 12 mps 678 mmHg 68%
    11:00 +7°C° 0 mm 12 mps 678 mmHg 68%
    12:00 +7°C° 0 mm 13 mps 678 mmHg 68%
    13:00 +8°C° 0 mm 13 mps 678 mmHg 67%
    14:00 +8°C° 0 mm 13 mps 678 mmHg 67%
    15:00 +7°C° 0 mm 13 mps 678 mmHg 67%
    16:00 +7°C° 0 mm 13 mps 678 mmHg 67%
    17:00 +5°C° 0 mm 13 mps 678 mmHg 71%
    18:00 +5°C° 0 mm 13 mps 679 mmHg 75%
    19:00 +4°C° 0 mm 13 mps 679 mmHg 79%
    20:00 +4°C° 0.2 mm 13 mps 679 mmHg 80%
    21:00 +4°C° 0.2 mm 14 mps 679 mmHg 81%
    22:00 +5°C° 0.2 mm 15 mps 680 mmHg 82%
    23:00 +5°C° 0.1 mm 14 mps 680 mmHg 83%

    25 November, Monday

    Time Temperature Precipitation Wind Pressure Humidity
    00:00 +5°C° 0.1 mm 14 mps 680 mmHg 83%
    01:00 +5°C° 0.1 mm 13 mps 680 mmHg 84%
    02:00 +5°C° 0 mm 13 mps 680 mmHg 84%
    03:00 +4°C° 0 mm 13 mps 681 mmHg 84%
    04:00 +4°C° 0 mm 14 mps 681 mmHg 84%
    05:00 +4°C° 0 mm 13 mps 681 mmHg 85%
    06:00 +4°C° 0 mm 12 mps 681 mmHg 87%
    07:00 +4°C° 0 mm 11 mps 682 mmHg 88%
    08:00 +6°C° 0 mm 11 mps 682 mmHg 86%
    09:00 +6°C° 0 mm 11 mps 683 mmHg 84%
    10:00 +7°C° 0 mm 10 mps 683 mmHg 83%
    11:00 +7°C° 0 mm 10 mps 683 mmHg 79%
    12:00 +8°C° 0 mm 10 mps 683 mmHg 76%
    13:00 +8°C° 0 mm 9 mps 684 mmHg 72%
    14:00 +8°C° 0 mm 9 mps 684 mmHg 72%
    15:00 +8°C° 0 mm 9 mps 684 mmHg 71%
    16:00 +8°C° 0 mm 9 mps 684 mmHg 70%
    17:00 +7°C° 0 mm 8 mps 684 mmHg 74%
    18:00 +8°C° 0 mm 7 mps 684 mmHg 77%
    19:00 +7°C° 0 mm 6 mps 685 mmHg 80%
    20:00 +6°C° 0 mm 5 mps 685 mmHg 82%
    21:00 +6°C° 0 mm 4 mps 685 mmHg 83%
    22:00 +7°C° 0 mm 3 mps 685 mmHg 85%
    23:00 +5°C° 0 mm 3 mps 685 mmHg 86%

    26 November, Tuesday

    Time Temperature Precipitation Wind Pressure Humidity
    00:00 +5°C° 0 mm 3 mps 685 mmHg 86%
    01:00 +5°C° 0 mm 3 mps 685 mmHg 87%
    02:00 +6°C° 0 mm 2 mps 685 mmHg 86%
    03:00 +5°C° 0 mm 2 mps 685 mmHg 86%
    04:00 +5°C° 0 mm 2 mps 685 mmHg 85%
    05:00 +6°C° 0 mm 1 mps 685 mmHg 85%
    06:00 +6°C° 0 mm 1 mps 685 mmHg 85%
    07:00 +6°C° 0 mm 1 mps 685 mmHg 84%
    08:00 +7°C° 0 mm 1 mps 686 mmHg 75%
    09:00 +9°C° 0 mm 1 mps 686 mmHg 66%
    10:00 +11°C° 0 mm 1 mps 687 mmHg 57%
    11:00 +12°C° 0 mm 1 mps 687 mmHg 51%
    12:00 +13°C° 0 mm 2 mps 687 mmHg 45%
    13:00 +14°C° 0 mm 2 mps 687 mmHg 39%
    14:00 +14°C° 0 mm 2 mps 687 mmHg 37%
    15:00 +15°C° 0 mm 2 mps 687 mmHg 35%
    16:00 +15°C° 0 mm 2 mps 687 mmHg 34%
    17:00 +13°C° 0 mm 2 mps 687 mmHg 40%
    18:00 +12°C° 0 mm 1 mps 686 mmHg 47%
    19:00 +10°C° 0 mm 1 mps 686 mmHg 54%
    20:00 +10°C° 0 mm 1 mps 686 mmHg 55%
    21:00 +9°C° 0 mm 1 mps 687 mmHg 56%
    22:00 +9°C° 0 mm 1 mps 687 mmHg 58%
    23:00 +9°C° 0 mm 1 mps 686 mmHg 57%
    Show more